DW6386 Weather Reports


time (UTC)temp
F
wind
direction
speed
knots
gust
knots
rain 1hr
in
rain 24hr
in
rain mn
in
humidity
%
barometer
mb
20260505114531 49 119 0.0 0.0 0.00 0.00 0.00 97 1013.2
20260505113035 48 120 0.0 0.0 0.00 0.00 0.00 97 1013.0
20260505111547 47 120 0.0 0.0 0.00 0.00 0.00 96 1012.7
20260505101519 47 120 0.0 0.0 0.00 0.00 0.00 95 1012.5
20260505100022 48 120 0.0 0.0 0.00 0.00 0.00 96 1012.5
20260505094517 48 119 0.0 0.0 0.00 0.00 0.00 95 1012.5
20260505093014 48 119 0.0 0.0 0.00 0.00 0.00 95 1012.3
20260505091511 48 119 0.0 0.0 0.00 0.00 0.00 95 1012.4
20260505090010 49 119 0.0 0.0 0.00 0.00 0.00 95 1012.4
20260505084516 49 119 0.0 0.0 0.00 0.00 0.00 95 1012.2
20260505083013 49 119 0.0 0.0 0.00 0.00 0.00 95 1012.1
20260505081505 49 119 0.0 0.0 0.00 0.00 0.00 94 1012.1
20260505080007 49 119 0.0 0.0 0.00 0.00 0.00 93 1011.9
20260505074600 50 119 0.0 0.0 0.00 0.00 0.00 94 1012.0
20260505073107 50 119 0.0 0.0 0.00 0.00 0.00 94 1011.9
20260505071557 50 119 0.0 0.0 0.00 0.00 0.00 93 1012.1
20260505070055 51 119 0.0 0.0 0.00 0.00 0.00 93 1012.2
20260505064601 51 119 0.0 0.0 0.00 0.00 0.00 91 1012.1
20260505063053 51 119 0.0 0.0 0.00 0.00 0.00 92 1012.2
20260505061548 52 119 0.0 0.0 0.00 0.00 0.00 91 1012.2
20260505060046 52 119 0.0 0.0 0.00 0.00 0.00 91 1012.2
20260505054553 53 119 0.0 0.0 0.00 0.00 0.00 89 1012.3
20260505053041 53 119 0.0 0.0 0.00 0.00 0.00 88 1012.2
20260505051540 53 119 0.0 0.0 0.00 0.00 0.00 88 1012.1
20260505041531 56 100 0.0 0.0 0.00 0.00 0.00 82 1011.7
20260505040023 57 100 0.0 0.0 0.00 0.00 0.00 81 1011.8
20260505034522 58 99 0.0 0.0 0.00 0.00 0.00 79 1011.8
20260505033022 59 94 0.0 0.0 0.00 0.00 0.00 78 1011.8
20260505031522 60 91 0.0 0.0 0.00 0.00 0.00 76 1011.7
20260505030021 62 88 0.0 0.0 0.00 0.00 0.00 72 1011.8
20260505024536 63 78 0.0 1.7 0.00 0.00 0.00 69 1011.9
20260505023021 63 72 0.0 0.0 0.00 0.00 0.00 69 1011.9
20260505021520 65 72 0.0 0.0 0.00 0.00 0.00 66 1011.9
20260505020019 66 58 0.0 2.6 0.00 0.00 0.00 64 1011.8
20260505014519 66 55 0.0 2.6 0.00 0.00 0.00 63 1011.6
20260505013022 67 46 0.0 4.3 0.00 0.00 0.00 63 1011.5
20260505011517 67 86 0.0 0.0 0.00 0.00 0.00 64 1011.4
20260505010016 67 46 0.0 3.5 0.00 0.00 0.00 64 1011.3
20260505004521 68 60 0.0 0.0 0.00 0.00 0.00 62 1011.2
20260505003016 70 60 0.0 0.0 0.00 0.00 0.00 59 1011.0
20260505001516 71 57 0.0 7.8 0.00 0.00 0.00 58 1010.9
20260505000028 72 56 0.0 4.3 0.00 0.00 0.00 56 1010.8
20260504234514 72 62 0.9 7.0 0.00 0.00 0.00 54 1010.8
20260504233020 73 5 0.9 6.1 0.00 0.00 0.00 53 1010.8
20260504231524 73 72 0.9 6.1 0.00 0.00 0.00 52 1010.8
20260504230016 74 43 2.6 7.0 0.00 0.00 0.00 49 1010.8
20260504224514 75 35 3.5 7.8 0.00 0.00 0.00 45 1010.8
20260504223010 75 24 1.7 6.1 0.00 0.00 0.00 47 1010.8
20260504221509 75 9 1.7 7.0 0.00 0.00 0.00 48 1010.8
20260504220016 75 27 1.7 7.0 0.00 0.00 0.00 48 1010.7
20260504214509 75 56 0.9 6.1 0.00 0.00 0.00 50 1010.8
20260504213009 75 45 0.9 5.2 0.00 0.00 0.00 50 1010.9
20260504211502 75 41 1.7 9.6 0.00 0.00 0.00 51 1011.1
20260504210111 76 54 0.9 9.6 0.00 0.00 0.00 50 1011.2
20260504204604 77 316 1.7 7.0 0.00 0.00 0.00 49 1011.2
20260504203056 77 307 0.0 6.1 0.00 0.00 0.00 50 1011.4
20260504201555 77 56 2.6 8.7 0.00 0.00 0.00 49 1011.7
20260504200051 77 61 1.7 8.7 0.00 0.00 0.00 51 1011.8
20260504194603 77 37 1.7 7.0 0.00 0.00 0.00 50 1012.2
20260504193046 76 52 0.9 7.8 0.00 0.00 0.00 51 1012.3
20260504191548 76 44 1.7 6.1 0.00 0.00 0.00 50 1012.6
20260504190048 75 34 0.9 6.1 0.00 0.00 0.00 51 1012.9
20260504184539 75 359 1.7 7.8 0.00 0.00 0.00 52 1013.1
20260504183032 74 304 0.0 4.3 0.00 0.00 0.00 54 1013.2
20260504181529 73 38 0.9 7.0 0.00 0.00 0.00 53 1013.4
20260504180033 73 39 0.9 4.3 0.00 0.00 0.00 53 1013.6
20260504174522 72 275 0.0 6.1 0.00 0.00 0.00 56 1013.8
20260504173021 71 240 0.9 6.1 0.00 0.00 0.00 55 1014.1
20260504171515 71 323 1.7 6.1 0.00 0.00 0.00 55 1014.3